sat.trackr.live / text

‹ back to catalog

STARLINK-34329

NORAD 64256 · 2025-120A

PAYLOAD ACTIVE UNKNOWN

§ Identity

Operator
Country
US
Launch date
2025-06-04
Launch site
AFWTR
Launch vehicle
Mass (kg)
RCS (m²)

Purposes: comms

External: N2YO · Heavens-Above · Gunter

§ Orbital elements

Epoch: 2026-05-25T04:55:00.404256Z

Period
93.78 min
Inclination
53.1603°
Eccentricity
0.0000727
Mean motion
15.35438419 rev/d
Perigee alt
459.1 km
Apogee alt
460.1 km
Semi-major
6,837.8 km
B*
7.4211e-4
RAAN
118.9748°
Arg perigee
78.1325°
Mean anomaly
281.9759°
Rev number
5,566

§ Raw data

STARLINK-343291 64256U 25120A   26145.20486579  .00025625  00000+0  74211-3 0  99992 64256  53.1603 118.9748 0000727  78.1325 281.9759 15.35438419 55669

JSON: /api/v1/satellites/64256 · /tle

For live sub-satellite position, see the globe view (requires WebGL).

§ Visibility from observer

Set your observer location to see the next 7 days of passes ≥ 10°. The values pass through the URL so the page stays shareable.

No JS? Fill the form by hand. The geolocation button needs JavaScript.